CARTOSAT-2F (43111 NORAD) Tracking and Keplerian Element Data

This shows tracking and keplerian element data for the satellite.

Feedback or suggestion? Click here.




ElementValue
Catalog43111
NameCARTOSAT-2F
Epoch Orbit2793
Epoch Day196.14781342
Epoch Year2018
RAAN256.9657
Inclination97.4809
Eccentricity0.0004421
Argument of Perigee10.3577
Mean Anonmoly349.7748
Mean Motion15.19216007
Decay Rate3.96E-06
L11 43111U 18004A 18196.14781342 .00000396 00000-0 22040-4 0 9998
L22 43111 97.4809 256.9657 0004421 10.3577 349.7748 15.19216007 27938

Live tracking and technical data element details for CARTOSAT-2F (NORAD 43111). CARTOSAT-2F can be tracked NOW for your location showing map with azimuth and elevation plus other details from your city location.

Track the satellite on the map from your city or location and see movement details for azimuth, elevation, latitude, longitude, range, height, and movement on the map or in text.







IsCatalogInMostPopularTable: catalog: 43111, numindb: 69
Update: records affected: 1



GetName: 43111 CARTOSAT-2F

Hit Count: updated at: Sun, 15 Jul 2018 23:18:59 GMT